• Join FlightAware (Why Join?)
  • Login
  • US Flag GB Flag 
18:45 EDT


 

Airport Tracker/Info


-or-


 

Live Flight TrackerFlight Track Log ✈ UPS2038 ✈ 18-Jul-2013 ✈ KDFW - KEWR

Flight Track Log - Related Links

Times and Time Zones

All times are in EDT time to prevent confusion due to time zone crossing. See the UPS2038 flight status page for this flight to view local times or setup timezone preferences in your user account.

Time Position Orientation Groundspeed Altitude Reporting Facility
EDT Latitude Longitude Course Direction KTS MPH feet Rate Location/Type
16:19 32.8630 -97.0240 164° South 168 193 2,900  Level FlightAware
16:19 32.8440 -97.0180 165° South 179 206 3,900 2,280 Climbing FlightAware
16:24 32.7473 -96.6082 68° East  Level FlightAware Approximate
16:24 32.7630 -96.7600 68° East 310 357 13,400  Level FlightAware
16:25 32.8020 -96.5970 74° East 382 440 16,400 2,040 Climbing FlightAware
16:26 32.8370 -96.4510 74° East 418 481 18,700 2,400 Climbing FlightAware
16:27 32.8600 -96.3370 76° East 432 497 20,600 2,400 Climbing FlightAware
16:28 32.8680 -96.2410 84° East 444 511 22,000 2,040 Climbing FlightAware
16:28 32.8690 -96.1380 89° East 453 521 23,400 2,040 Climbing FlightAware
16:29 32.8710 -96.0320 89° East 458 527 24,900 2,400 Climbing FlightAware
16:30 32.8730 -95.9330 89° East 449 517 26,700 2,460 Climbing FlightAware
16:30 32.8740 -95.8290 89° East 446 513 28,300 2,160 Climbing FlightAware
16:31 32.8760 -95.7320 89° East 444 511 29,700 1,860 Climbing FlightAware
16:32 32.8770 -95.6370 89° East 443 510 30,800 1,800 Climbing FlightAware
16:32 32.8790 -95.5300 89° East 440 506 32,200 1,620 Climbing FlightAware
16:33 32.8800 -95.4430 89° East 440 506 33,000 480 Climbing FlightAware
16:34 32.8910 -95.3010 85° East 439 505 33,000  Level FlightAware
16:35 32.9070 -95.1940 80° East 437 503 33,000  Level FlightAware
16:35 32.9220 -95.1020 79° East 434 499 33,000  Level FlightAware
16:36 32.9370 -94.9990 80° East 433 498 33,000  Level FlightAware
16:37 32.9480 -94.9285 79° East 435 501 33,000  Level FlightAware ADS-B
16:37 32.9597 -94.8504 80° East 435 501 33,000  Level FlightAware ADS-B
16:38 32.9799 -94.7144 80° East 433 498 33,000  Level FlightAware ADS-B
16:39 33.0010 -94.5720 80° East 430 495 33,000  Level FlightAware
16:41 33.0377 -94.3215 80° East 429 494 33,000  Level FlightAware ADS-B
16:41 33.0479 -94.2519 80° East 428 493 33,000  Level FlightAware ADS-B
16:42 33.0504 -94.1979 87° East 426 490 33,000  Level FlightAware ADS-B
16:42 33.0446 -94.1141 95° East 425 489 33,000  Level FlightAware ADS-B
16:43 33.0385 -94.0348 95° East 427 491 33,000  Level FlightAware ADS-B
16:44 33.0287 -93.9032 95° East 429 494 33,000  Level FlightAware ADS-B
16:44 33.0183 -93.8335 100° East 430 495 33,000  Level FlightAware ADS-B
16:45 33.1060 -93.8570 347° North 428 493 33,000  Level FlightAware
16:46 32.9716 -93.6729 131° Southeast 427 491 33,000  Level FlightAware ADS-B
16:46 32.9416 -93.5711 109° East 427 491 33,000  Level FlightAware ADS-B
16:47 32.9161 -93.4814 109° East 429 494 33,000  Level Fort Worth Center
16:48 32.8742 -93.3472 110° East 424 488 33,000  Level Fort Worth Center
16:49 32.8364 -93.2153 109° East 424 488 33,000  Level Fort Worth Center
16:50 32.7964 -93.0814 110° East 424 488 33,000  Level Fort Worth Center
16:51 32.7542 -92.9500 111° Southeast 424 488 33,000  Level Fort Worth Center
16:52 32.7119 -92.8189 111° Southeast 424 488 33,000  Level Fort Worth Center
16:53 32.6633 -92.6906 114° Southeast 424 488 33,000  Level Fort Worth Center
16:54 32.6117 -92.5719 117° Southeast 431 496 33,000 -60 Level Houston Center
16:55 32.5497 -92.4311 118° Southeast 428 493 32,900  Descending Houston Center
16:56 32.4900 -92.3069 120° Southeast 430 495 33,000  Climbing Houston Center
16:57 32.4236 -92.1894 124° Southeast 431 496 33,000  Level Houston Center
16:58 32.3558 -92.0725 124° Southeast 431 496 33,000  Level Houston Center
16:59 32.2819 -91.9436 124° Southeast 437 503 33,000  Level Houston Center
17:00 32.2133 -91.8253 124° Southeast 435 501 33,000  Level Houston Center
17:01 32.1464 -91.7081 124° Southeast 432 497 33,000  Level Houston Center
17:02 32.0792 -91.5903 124° Southeast 432 497 33,000  Level Houston Center
17:03 32.0019 -91.4525 123° Southeast 424 488 33,000  Level Houston Center
17:04 31.9378 -91.3353 123° Southeast 422 486 33,000  Level Houston Center
17:06 31.8722 -91.2156 123° Southeast 429 494 33,000  Level Houston Center
17:07 31.8058 -91.0986 124° Southeast 430 495 33,000  Level Houston Center
17:08 31.7447 -90.9831 122° Southeast 422 486 33,000  Level Houston Center
17:09 31.7069 -90.8528 109° East 422 486 33,000  Level Houston Center
17:10 31.7061 -90.7192 90° East 411 473 33,000  Level Houston Center
17:11 31.7275 -90.5611 81° East 409 471 33,000 -60 Level Houston Center
17:12 31.7442 -90.4292 82° East 409 471 32,900  Descending Houston Center
17:14 31.7783 -90.1667 81° East 408 470 33,000  Climbing Memphis Center
17:15 31.7947 -90.0322 82° East 408 470 33,000  Level Memphis Center
17:16 31.8150 -89.8978 80° East 408 470 33,000  Level Memphis Center
17:17 31.8311 -89.7633 82° East 408 470 33,000  Level Memphis Center
17:18 31.8492 -89.6261 81° East 413 475 33,000  Level Memphis Center
17:19 31.8650 -89.4914 82° East 413 475 33,000  Level Memphis Center
17:24 31.9560 -88.7490 82° East 427 491 33,000  Level FlightAware
17:25 31.9680 -88.6550 81° East 423 487 33,000  Level FlightAware
17:25 31.9800 -88.5520 82° East 425 489 33,000  Level FlightAware
17:26 31.9900 -88.4690 82° East 425 489 33,000  Level FlightAware
17:27 32.0020 -88.3640 82° East 425 489 33,000  Level FlightAware
17:28 32.0110 -88.2930 81° East 425 489 33,000  Level FlightAware
17:28 32.0240 -88.1760 83° East 429 494 33,000  Level FlightAware
17:29 32.0420 -88.0150 82° East 423 487 33,000  Level FlightAware
17:30 32.0510 -87.9400 82° East 420 483 33,000  Level FlightAware
17:31 32.0640 -87.8170 83° East 419 482 33,000  Level FlightAware
17:31 32.0740 -87.7290 82° East 418 481 33,000  Level FlightAware
17:32 32.0880 -87.6050 82° East 419 482 33,000  Level FlightAware
17:33 32.1060 -87.5680 60° Northeast 425 489 33,000  Level FlightAware
17:33 32.1500 -87.4900 56° Northeast 428 493 33,000  Level FlightAware
17:34 32.1950 -87.4100 56° Northeast 429 494 33,000  Level FlightAware
17:34 32.2240 -87.3570 57° Northeast 429 494 33,000  Level FlightAware
17:35 32.2740 -87.2670 57° Northeast 428 493 33,000  Level FlightAware
17:36 32.3320 -87.1650 56° Northeast 427 491 33,000  Level FlightAware
17:37 32.3740 -87.0870 57° Northeast 422 486 33,000  Level FlightAware
17:38 32.4460 -86.9570 57° Northeast 397 457 33,000  Level FlightAware
17:39 32.4900 -86.8770 57° Northeast 396 456 33,000  Level FlightAware
17:39 32.5330 -86.7980 57° Northeast 397 457 33,000  Level FlightAware
17:40 32.5810 -86.7110 57° Northeast 396 456 33,000  Level FlightAware
17:41 32.6210 -86.6380 57° Northeast 397 457 33,000  Level FlightAware
17:42 32.6670 -86.5530 57° Northeast 397 457 33,000  Level FlightAware
17:42 32.7050 -86.4840 57° Northeast 399 459 33,000  Level FlightAware
17:43 32.7360 -86.4260 58° Northeast 399 459 33,000  Level FlightAware
17:43 32.7680 -86.3680 57° Northeast 399 459 33,000  Level FlightAware
17:44 32.8320 -86.2490 57° Northeast 401 461 33,000  Level FlightAware
17:45 32.8630 -86.1920 57° Northeast 401 461 33,000  Level FlightAware
17:46 32.9030 -86.1200 56° Northeast 401 461 33,000  Level FlightAware
17:46 32.9570 -86.0180 58° Northeast 401 461 33,000  Level FlightAware
17:48 33.0260 -85.8900 57° Northeast 405 466 33,000  Level FlightAware
17:49 33.0880 -85.7740 57° Northeast 399 459 33,000  Level FlightAware
17:49 33.1220 -85.7090 58° Northeast 398 458 33,000  Level FlightAware
17:50 33.1660 -85.6270 57° Northeast 402 463 33,000  Level FlightAware
17:51 33.2090 -85.5450 58° Northeast 400 460 33,000  Level FlightAware
17:51 33.2490 -85.4700 57° Northeast 398 458 33,000  Level FlightAware
17:52 33.2900 -85.3940 57° Northeast 400 460 33,000  Level FlightAware
17:53 33.3340 -85.3090 58° Northeast 400 460 33,000  Level FlightAware
17:53 33.3730 -85.2360 57° Northeast 400 460 33,000  Level FlightAware
17:54 33.4120 -85.1610 58° Northeast 401 461 33,000  Level FlightAware
17:55 33.4560 -85.0780 58° Northeast 402 463 33,000  Level FlightAware
17:55 33.5000 -84.9930 58° Northeast 400 460 33,000  Level FlightAware
17:56 33.5380 -84.9180 59° Northeast 398 458 33,000  Level FlightAware
17:56 33.5553 -84.8862 57° Northeast 398 458 33,000  Level FlightAware ADS-B
17:57 33.5947 -84.8110 58° Northeast 403 464 33,000  Level FlightAware ADS-B
17:58 33.6274 -84.7481 58° Northeast 405 466 33,000  Level FlightAware ADS-B
17:58 33.6595 -84.6854 58° Northeast 403 464 33,000  Level FlightAware ADS-B
17:59 33.6894 -84.6285 58° Northeast 400 460 33,000  Level FlightAware ADS-B
17:59 33.7230 -84.5625 59° Northeast 400 460 33,000  Level FlightAware ADS-B
18:00 33.7573 -84.4962 58° Northeast 401 461 33,000  Level FlightAware ADS-B
18:00 33.7878 -84.4374 58° Northeast 400 460 33,000  Level FlightAware ADS-B
18:01 33.8176 -84.3788 59° Northeast 400 460 33,000  Level FlightAware ADS-B
18:01 33.8481 -84.3201 58° Northeast 400 460 33,000  Level FlightAware ADS-B
18:02 33.8775 -84.2632 58° Northeast 400 460 33,000  Level FlightAware ADS-B
18:02 33.9088 -84.2006 59° Northeast 401 461 33,000  Level FlightAware ADS-B
18:03 33.9394 -84.1415 58° Northeast 401 461 33,000  Level FlightAware ADS-B
18:04 33.9786 -84.0635 59° Northeast 401 461 33,000  Level FlightAware ADS-B
18:04 34.0127 -83.9968 58° Northeast 400 460 33,000  Level FlightAware ADS-B
18:05 34.0418 -83.9397 58° Northeast 402 463 33,000  Level FlightAware ADS-B
18:05 34.0714 -83.8803 59° Northeast 403 464 33,000  Level FlightAware ADS-B
18:06 34.1169 -83.7921 58° Northeast 403 464 33,000  Level FlightAware ADS-B
18:07 34.1499 -83.7266 59° Northeast 404 465 33,000  Level FlightAware ADS-B
18:07 34.1847 -83.6571 59° Northeast 404 465 33,000  Level FlightAware ADS-B
18:08 34.2175 -83.5916 59° Northeast 404 465 33,000  Level FlightAware ADS-B
18:08 34.2491 -83.5279 59° Northeast 401 461 33,000  Level FlightAware ADS-B
18:09 34.2779 -83.4704 59° Northeast 401 461 33,000  Level FlightAware ADS-B
18:09 34.3112 -83.4033 59° Northeast 401 461 33,000  Level FlightAware ADS-B
18:10 34.3479 -83.3303 59° Northeast 401 461 33,000  Level FlightAware ADS-B
18:11 34.3893 -83.2476 59° Northeast 401 461 33,000  Level FlightAware ADS-B
18:11 34.4217 -83.1822 59° Northeast 401 461 33,000  Level FlightAware ADS-B
18:12 34.4840 -83.0550 59° Northeast 426 490 33,000  Level FlightAware
18:13 34.5240 -82.9750 59° Northeast 433 498 33,000  Level FlightAware
18:14 34.5650 -82.8930 59° Northeast 433 498 33,000  Level FlightAware
18:14 34.6060 -82.8080 60° Northeast 430 495 33,000  Level FlightAware
18:15 34.6276 -82.7645 59° Northeast 428 493 33,000  Level FlightAware ADS-B
18:15 34.6582 -82.7024 59° Northeast 428 493 33,000  Level FlightAware ADS-B
18:16 34.6904 -82.6364 59° Northeast 427 491 33,000  Level FlightAware ADS-B
18:16 34.7215 -82.5725 59° Northeast 429 494 33,000  Level FlightAware ADS-B
18:17 34.7524 -82.5102 59° Northeast 429 494 33,000  Level FlightAware ADS-B
18:17 34.7837 -82.4439 60° Northeast 428 493 33,000  Level FlightAware ADS-B
18:18 34.8144 -82.3817 59° Northeast 427 491 33,000  Level FlightAware ADS-B
18:18 34.8495 -82.3093 59° Northeast 425 489 33,000  Level FlightAware ADS-B
18:19 34.9010 -82.2030 59° Northeast 423 487 33,000  Level FlightAware
18:19 34.9149 -82.1737 60° Northeast 423 487 33,000  Level FlightAware ADS-B
18:20 34.9470 -82.1076 59° Northeast 428 493 33,000  Level FlightAware ADS-B
18:21 34.9800 -82.0387 60° Northeast 428 493 33,000  Level FlightAware ADS-B
18:21 35.0156 -81.9640 60° Northeast 426 490 33,000  Level FlightAware ADS-B
18:22 35.0454 -81.9022 59° Northeast 421 484 33,000  Level FlightAware ADS-B
18:22 35.0802 -81.8364 57° Northeast 422 486 33,000  Level FlightAware ADS-B
18:23 35.1138 -81.7745 56° Northeast 426 490 33,000  Level FlightAware ADS-B
18:23 35.1495 -81.7081 57° Northeast 425 489 33,000  Level FlightAware ADS-B
18:24 35.1832 -81.6459 56° Northeast 422 486 33,000  Level FlightAware ADS-B
18:24 35.2153 -81.5838 58° Northeast 421 484 33,000  Level FlightAware ADS-B
18:25 35.2554 -81.5079 57° Northeast 420 483 33,000  Level FlightAware ADS-B
18:26 35.2900 -81.4421 57° Northeast 420 483 33,000  Level FlightAware ADS-B
18:27 35.3530 -81.3220 57° Northeast 421 484 33,000  Level FlightAware
18:27 35.3651 -81.2996 56° Northeast 421 484 33,000  Level FlightAware ADS-B
18:28 35.4202 -81.1933 58° Northeast 419 482 33,000  Level FlightAware ADS-B
18:29 35.4800 -81.0790 57° Northeast 419 482 33,000  Level FlightAware
18:29 35.5180 -81.0070 57° Northeast 420 483 33,000  Level FlightAware
18:30 35.5650 -80.9180 57° Northeast 423 487 33,000  Level FlightAware
18:31 35.6100 -80.8280 58° Northeast 421 484 33,000  Level FlightAware
18:31 35.6490 -80.7540 57° Northeast 422 486 33,000  Level FlightAware
18:32 35.7100 -80.6350 58° Northeast 418 481 33,000  Level FlightAware
18:33 35.7480 -80.5620 57° Northeast 419 482 33,000  Level FlightAware
18:33 35.7840 -80.4920 58° Northeast 419 482 33,000  Level FlightAware
18:34 35.8310 -80.3980 58° Northeast 417 480 33,000  Level FlightAware
18:35 35.8850 -80.2940 57° Northeast 417 480 33,000  Level FlightAware
18:36 35.9320 -80.2010 58° Northeast 418 481 33,000  Level FlightAware
18:36 35.9710 -80.1230 58° Northeast 419 482 33,000  Level FlightAware
18:37 36.0020 -80.0610 58° Northeast 419 482 33,000  Level FlightAware
18:38 36.0440 -79.9780 58° Northeast 419 482 33,000  Level FlightAware
18:39 36.1030 -79.8740 55° Northeast 422 486 33,000  Level FlightAware
18:39 36.1490 -79.7930 55° Northeast 422 486 33,000  Level FlightAware
18:40 36.1960 -79.7100 55° Northeast 424 488 33,000  Level FlightAware
18:41 36.2410 -79.6310 55° Northeast 422 486 33,000  Level FlightAware
18:41 36.2800 -79.5610 55° Northeast 424 488 33,000  Level FlightAware
18:42 36.3250 -79.4810 55° Northeast 426 490 33,000  Level FlightAware
18:42 36.3700 -79.4030 54° Northeast 425 489 33,000  Level FlightAware
18:43 36.4160 -79.3190 56° Northeast 424 488 33,000  Level FlightAware
18:44 36.4660 -79.2310 55° Northeast 423 487 33,000  Level FlightAware
18:45 36.5320 -79.1130 55° Northeast 424 488 33,000  Level FlightAware
18:46 36.5780 -79.0280 56° Northeast 423 487 33,000  Level FlightAware
18:46 36.6160 -78.9600 55° Northeast 423 487 33,000  Level FlightAware
18:47 36.6730 -78.8580 55° Northeast 423 487 33,000  Level FlightAware
18:48 36.7210 -78.7680 56° Northeast 402 463 33,000  Level FlightAware
18:48 36.7570 -78.7060 54° Northeast 393 452 33,000  Level FlightAware
18:49 36.8050 -78.6170 56° Northeast 392 451 33,000  Level FlightAware
18:50 36.8480 -78.5400 55° Northeast 396 456 33,000  Level FlightAware
18:50 36.8870 -78.4680 56° Northeast 395 455 33,000  Level FlightAware
18:51 36.9330 -78.3820 56° Northeast 390 449 33,000  Level FlightAware
18:52 36.9890 -78.2830 55° Northeast 391 450 33,000  Level FlightAware
18:53 37.0190 -78.2290 55° Northeast 391 450 33,000  Level FlightAware
18:53 37.0520 -78.1690 55° Northeast 391 450 33,000  Level FlightAware
18:54 37.0950 -78.0940 54° Northeast 391 450 33,000  Level FlightAware
18:54 37.1990 -78.0810 North 440 506 33,000  Level FlightAware
18:55 37.2570 -78.0380 31° Northeast 440 506 33,000  Level FlightAware
18:56 37.3290 -77.9830 31° Northeast 439 505 33,000  Level FlightAware
18:56 37.4000 -77.9280 32° Northeast 439 505 33,000  Level FlightAware
18:57 37.4820 -77.8660 31° Northeast 439 505 33,000  Level FlightAware
18:58 37.5500 -77.8100 33° Northeast 441 507 33,000  Level FlightAware
18:58 37.6190 -77.7470 36° Northeast 441 507 33,000  Level FlightAware
18:59 37.6900 -77.6840 35° Northeast 440 506 33,000  Level FlightAware
19:02 37.9335 -77.4041 42° Northeast 447 514 33,000  Level FlightAware ADS-B
19:02 37.9682 -77.3387 56° Northeast 448 516 33,000  Level FlightAware ADS-B
19:03 38.0174 -77.2473 56° Northeast 447 514 33,000  Level FlightAware ADS-B
19:04 38.0883 -77.1126 56° Northeast 447 514 33,000  Level FlightAware ADS-B
19:05 38.1240 -77.0453 56° Northeast 446 513 33,000  Level FlightAware ADS-B
19:05 38.1545 -76.9927 54° Northeast 444 511 33,000  Level FlightAware ADS-B
19:05 38.1823 -76.9666 36° Northeast 443 510 33,000  Level FlightAware ADS-B
19:06 38.2198 -76.9527 16° North 442 509 33,000  Level FlightAware ADS-B
19:06 38.2519 -76.9544 358° North 442 509 33,000  Level FlightAware ADS-B
19:06 38.2641 -76.9571 350° North 443 510 33,000  Level FlightAware ADS-B
19:07 38.3411 -76.9756 349° North 443 510 33,000  Level FlightAware ADS-B
19:07 38.4035 -76.9862 352° North 443 510 33,000  Level FlightAware ADS-B
19:08 38.5110 -76.9413 18° North 443 510 33,000  Level FlightAware ADS-B
19:08 38.5313 -76.9194 40° Northeast 443 510 33,000 -720 Level FlightAware ADS-B
19:09 38.5773 -76.8684 41° Northeast 436 502 32,500 -1,140 Descending FlightAware ADS-B
19:09 38.6236 -76.8167 41° Northeast 427 491 31,900 -1,140 Descending FlightAware ADS-B
19:10 38.6683 -76.7673 41° Northeast 419 482 31,400 -1,140 Descending FlightAware ADS-B
19:10 38.7124 -76.7187 41° Northeast 414 476 30,800 -1,200 Descending FlightAware ADS-B
19:11 38.7585 -76.6677 41° Northeast 410 472 30,200 -1,260 Descending FlightAware ADS-B
19:11 38.8028 -76.6167 42° Northeast 405 466 29,500 -1,560 Descending FlightAware ADS-B
19:12 38.8460 -76.5696 40° Northeast 403 464 28,600 -1,800 Descending FlightAware ADS-B
19:12 38.8886 -76.5211 42° Northeast 400 460 27,700 -1,680 Descending FlightAware ADS-B
19:13 38.9312 -76.4743 41° Northeast 398 458 26,900 -1,740 Descending FlightAware ADS-B
19:13 38.9772 -76.4213 42° Northeast 395 455 25,900 -1,500 Descending FlightAware ADS-B
19:14 39.0181 -76.3753 41° Northeast 390 449 25,300 -900 Descending FlightAware ADS-B
19:14 39.0581 -76.3307 41° Northeast 379 436 25,000 -300 Descending FlightAware ADS-B
19:15 39.0988 -76.2863 40° Northeast 380 437 25,000  Level FlightAware ADS-B
19:15 39.1391 -76.2412 41° Northeast 386 444 25,000  Level FlightAware ADS-B
19:16 39.1811 -76.1923 42° Northeast 389 448 25,000  Level FlightAware ADS-B
19:17 39.2264 -76.1414 41° Northeast 392 451 25,000  Level FlightAware ADS-B
19:17 39.2679 -76.0948 41° Northeast 394 453 25,000  Level FlightAware ADS-B
19:18 39.3094 -76.0462 42° Northeast 393 452 25,000  Level FlightAware ADS-B
19:18 39.3502 -75.9988 42° Northeast 390 449 25,000 -240 Level FlightAware ADS-B
19:19 39.3966 -75.9434 43° Northeast 393 452 24,800 -840 Descending FlightAware ADS-B
19:19 39.4373 -75.8942 43° Northeast 393 452 24,100 -1,380 Descending FlightAware ADS-B
19:20 39.4800 -75.8436 42° Northeast 385 443 23,400 -1,320 Descending FlightAware ADS-B
19:20 39.5219 -75.7943 42° Northeast 379 436 22,700 -1,380 Descending FlightAware ADS-B
19:21 39.5566 -75.7531 42° Northeast 375 432 22,100 -1,320 Descending FlightAware ADS-B
19:21 39.5947 -75.7078 42° Northeast 372 428 21,500 -1,320 Descending FlightAware ADS-B
19:22 39.6332 -75.6627 42° Northeast 368 423 20,800 -1,380 Descending FlightAware ADS-B
19:22 39.6727 -75.6150 43° Northeast 364 419 20,100 -1,380 Descending FlightAware ADS-B
19:23 39.7102 -75.5693 43° Northeast 359 413 19,400 -1,500 Descending FlightAware ADS-B
19:23 39.7473 -75.5253 42° Northeast 356 410 18,600 -1,500 Descending FlightAware ADS-B
19:24 39.7834 -75.4819 43° Northeast 352 405 17,900 -1,380 Descending FlightAware ADS-B
19:24 39.8198 -75.4374 43° Northeast 347 399 17,200 -1,500 Descending FlightAware ADS-B
19:25 39.8562 -75.3936 43° Northeast 347 399 16,400 -1,500 Descending FlightAware ADS-B
19:25 39.8922 -75.3497 43° Northeast 344 396 15,700 -1,380 Descending FlightAware ADS-B
19:26 39.9272 -75.3072 43° Northeast 340 391 15,000 -1,440 Descending FlightAware ADS-B
19:26 39.9514 -75.2779 43° Northeast 337 388 14,500 -1,440 Descending FlightAware ADS-B
19:27 39.9903 -75.2309 43° Northeast 334 384 13,700 -1,320 Descending FlightAware ADS-B
19:27 40.0239 -75.1901 43° Northeast 327 376 13,100 -1,320 Descending FlightAware ADS-B
19:28 40.0576 -75.1484 43° Northeast 322 371 12,400 -1,380 Descending FlightAware ADS-B
19:28 40.0901 -75.1090 43° Northeast 317 365 11,700 -1,320 Descending FlightAware ADS-B
19:29 40.1224 -75.0685 44° Northeast 312 359 11,100 -1,200 Descending FlightAware ADS-B
19:29 40.1563 -75.0272 43° Northeast 312 359 10,500 -1,200 Descending FlightAware ADS-B
19:30 40.1770 -75.0012 44° Northeast 313 360 10,100 -1,200 Descending FlightAware ADS-B
19:30 40.1879 -74.9885 42° Northeast 310 357 9,900 -1,140 Descending FlightAware ADS-B
19:30 40.2051 -74.9671 44° Northeast 299 344 9,600 -1,260 Descending FlightAware ADS-B
19:30 40.2215 -74.9460 44° Northeast 296 341 9,200 -1,680 Descending FlightAware ADS-B
19:31 40.2377 -74.9265 43° Northeast 295 339 8,700 -1,800 Descending FlightAware ADS-B
19:31 40.2527 -74.9080 43° Northeast 294 338 8,300 -1,320 Descending FlightAware ADS-B
19:31 40.2604 -74.8979 45° Northeast 293 337 8,200 -720 Descending FlightAware ADS-B
19:31 40.2754 -74.8758 48° Northeast 292 336 8,000 -360 Descending FlightAware ADS-B
19:32 40.2918 -74.8527 47° Northeast 289 333 8,000  Level FlightAware ADS-B
19:32 40.3058 -74.8333 47° Northeast 291 335 8,000 -240 Level FlightAware ADS-B
19:32 40.3197 -74.8140 47° Northeast 288 331 7,900 -1,200 Descending FlightAware ADS-B
19:32 40.3339 -74.7946 46° Northeast 289 333 7,400 -1,800 Descending FlightAware ADS-B
19:33 40.3481 -74.7742 48° Northeast 289 333 7,000 -1,740 Descending FlightAware ADS-B
19:33 40.3625 -74.7536 47° Northeast 288 331 6,500 -1,500 Descending FlightAware ADS-B
19:33 40.3769 -74.7333 47° Northeast 284 327 6,200 -900 Descending FlightAware ADS-B
19:33 40.3940 -74.7094 47° Northeast 284 327 6,000 -360 Descending FlightAware ADS-B
19:34 40.4082 -74.6906 45° Northeast 283 326 6,000  Level FlightAware ADS-B
19:34 40.4157 -74.6796 48° Northeast 283 326 6,000  Level FlightAware ADS-B
19:34 40.4203 -74.6752 36° Northeast 283 326 6,000  Level FlightAware ADS-B
19:34 40.4261 -74.6706 31° Northeast 282 325 6,000  Level FlightAware ADS-B
19:34 40.4325 -74.6664 27° Northeast 281 323 6,000  Level FlightAware ADS-B
19:34 40.4381 -74.6646 14° North 279 321 6,000  Level FlightAware ADS-B
19:34 40.4572 -74.6593 12° North 278 320 6,000  Level FlightAware ADS-B
19:35 40.4754 -74.6542 12° North 277 319 6,000  Level FlightAware ADS-B
19:35 40.4946 -74.6494 11° North 276 318 6,000  Level FlightAware ADS-B
19:35 40.5136 -74.6447 11° North 276 318 6,000  Level FlightAware ADS-B
19:35 40.5331 -74.6397 11° North 276 318 6,000  Level FlightAware ADS-B
19:36 40.5529 -74.6346 11° North 276 318 6,000  Level FlightAware ADS-B
19:36 40.5737 -74.6291 11° North 275 316 6,000  Level FlightAware ADS-B
19:36 40.5933 -74.6238 12° North 276 318 6,000  Level FlightAware ADS-B
19:36 40.6127 -74.6188 11° North 276 318 6,000  Level FlightAware ADS-B
19:37 40.6317 -74.6137 12° North 275 316 6,000  Level FlightAware ADS-B
19:37 40.6508 -74.6083 12° North 275 316 6,000  Level FlightAware ADS-B
19:37 40.6712 -74.6029 11° North 277 319 6,000  Level FlightAware ADS-B
19:37 40.6819 -74.5996 13° North 277 319 6,000  Level FlightAware ADS-B
19:37 40.6869 -74.5975 18° North 278 320 6,000  Level FlightAware ADS-B
19:38 40.6945 -74.5930 24° Northeast 280 322 6,000  Level FlightAware ADS-B
19:38 40.7055 -74.5841 32° Northeast 281 323 6,000 -960 Level FlightAware ADS-B
19:38 40.7209 -74.5682 38° Northeast 279 321 5,600 -1,440 Descending FlightAware ADS-B
19:38 40.7430 -74.5429 41° Northeast 280 322 5,100 -900 Descending FlightAware ADS-B
19:39 40.7601 -74.5244 39° Northeast 280 322 5,000 -180 Descending FlightAware ADS-B
19:39 40.7882 -74.4942 39° Northeast 279 321 5,000  Level FlightAware ADS-B
19:40 40.8161 -74.4637 40° Northeast 279 321 5,000 -360 Level FlightAware ADS-B
19:40 40.8259 -74.4540 37° Northeast 276 318 4,800 -1,080 Descending FlightAware ADS-B
19:40 40.8672 -74.3977 46° Northeast 278 320 4,000 -900 Descending FlightAware ADS-B
19:41 40.8733 -74.3845 59° Northeast 277 319 4,000  Level FlightAware ADS-B
19:41 40.8749 -74.3800 65° Northeast 278 320 4,000  Level FlightAware ADS-B
19:41 40.8788 -74.3675 68° East 277 319 4,000  Level FlightAware ADS-B
19:41 40.8940 -74.3190 67° East 279 321 4,000  Level FlightAware
19:42 40.9108 -74.2593 70° East 283 326 4,000  Level FlightAware ADS-B
19:42 40.9112 -74.2525 86° East 284 327 4,000  Level FlightAware ADS-B
19:42 40.9110 -74.2473 93° East 284 327 4,000  Level FlightAware ADS-B
19:42 40.9102 -74.2404 99° East 285 328 4,000  Level FlightAware ADS-B
19:42 40.9084 -74.2303 103° East 285 328 4,000  Level FlightAware ADS-B
19:42 40.9026 -74.2037 106° East 278 320 4,000  Level FlightAware ADS-B
19:43 40.8968 -74.1786 107° East 259 298 4,000 -780 Level FlightAware ADS-B
19:43 40.8890 -74.1452 107° East 241 277 3,500 -1,200 Descending FlightAware ADS-B
19:44 40.8822 -74.1151 107° East 239 275 3,100 -900 Descending FlightAware ADS-B
19:44 40.8786 -74.0994 107° East 218 251 3,000 -420 Descending FlightAware ADS-B
19:44 40.8776 -74.0958 110° East 215 247 3,000  Level FlightAware ADS-B
19:44 40.8702 -74.0824 126° Southeast 209 241 3,000  Level FlightAware ADS-B
19:44 40.8661 -74.0790 148° Southeast 207 238 3,000  Level FlightAware ADS-B
19:44 40.8567 -74.0748 161° South 206 237 3,000  Level FlightAware ADS-B
19:44 40.8488 -74.0718 164° South 207 238 3,000  Level FlightAware ADS-B
19:44 40.8461 -74.0712 170° South 207 238 3,000  Level FlightAware ADS-B
19:44 40.8431 -74.0711 179° South 206 237 3,000  Level FlightAware ADS-B